GEFSMA_prec_meanprecacc_108.txt.gz
Total_Precipitation_Accumulation
0.11 0.11 0.11 0.12 0.12 0.13 0.14 0.16 0.17 0.16 0.16 0.16 0.17 0.18 0.21 0.23 0.21 0.17 0.14 0.12 0.08 0.08 0.14 0.29 0.54 0.80 1.00 1.11 1.12 0.98 0.90 0.77 0.60 0.51 0.48 0.55 0.58 0.57 0.61 0.70 0.67 0.55 0.51
0.03 0.03 0.03 0.03 0.02 0.02 0.02 0.03 0.04 0.05 0.06 0.08 0.09 0.11 0.13 0.16 0.18 0.19 0.19 0.21 0.16 0.13 0.14 0.20 0.33 0.56 0.87 1.09 1.20 1.18 1.05 0.96 0.79 0.62 0.54 0.53 0.59 0.59 0.58 0.63 0.71 0.67 0.56
0.01 0.02 0.01 0.01 0.00 0.00 0.00 0.00 0.00 0.01 0.01 0.02 0.03 0.05 0.07 0.08 0.12 0.15 0.18 0.22 0.23 0.20 0.17 0.20 0.27 0.42 0.71 1.01 1.19 1.33 1.25 1.11 1.00 0.86 0.67 0.55 0.57 0.61 0.60 0.61 0.68 0.75 0.71
0.00 0.01 0.01 0.01 0.00 0.00 0.01 0.01 0.01 0.00 0.01 0.01 0.02 0.03 0.05 0.06 0.06 0.09 0.14 0.16 0.19 0.21 0.20 0.20 0.28 0.42 0.60 0.85 1.13 1.39 1.49 1.34 1.24 1.18 0.99 0.76 0.61 0.62 0.63 0.62 0.67 0.75 0.82
0.00 0.00 0.01 0.01 0.00 0.01 0.02 0.02 0.02 0.02 0.01 0.01 0.02 0.02 0.02 0.04 0.05 0.08 0.11 0.14 0.17 0.18 0.20 0.21 0.25 0.34 0.47 0.70 1.04 1.38 1.72 1.76 1.58 1.46 1.30 1.11 0.87 0.70 0.68 0.66 0.68 0.76 0.84
0.00 0.00 0.01 0.01 0.01 0.01 0.01 0.01 0.02 0.02 0.02 0.01 0.02 0.01 0.00 0.01 0.02 0.05 0.07 0.12 0.16 0.17 0.19 0.24 0.27 0.25 0.27 0.39 0.63 1.01 1.38 1.73 1.80 1.71 1.61 1.42 1.20 0.97 0.82 0.75 0.73 0.80 0.91
0.00 0.00 0.00 0.00 0.00 0.01 0.01 0.01 0.02 0.03 0.02 0.02 0.02 0.01 0.00 0.00 0.01 0.02 0.07 0.12 0.17 0.23 0.29 0.34 0.40 0.38 0.30 0.29 0.32 0.46 0.80 1.29 1.66 1.83 1.83 1.77 1.54 1.28 1.06 0.90 0.85 0.88 0.95
0.00 0.00 0.00 0.00 0.00 0.01 0.01 0.01 0.02 0.04 0.04 0.03 0.07 0.11 0.05 0.01 0.00 0.01 0.04 0.09 0.17 0.27 0.39 0.44 0.49 0.50 0.46 0.36 0.25 0.25 0.37 0.73 1.28 1.75 1.89 1.91 1.94 1.73 1.37 1.13 0.99 1.00 1.05
0.00 0.00 0.00 0.00 0.00 0.01 0.01 0.01 0.02 0.04 0.06 0.04 0.07 0.24 0.32 0.16 0.05 0.00 0.01 0.04 0.08 0.12 0.20 0.29 0.36 0.41 0.47 0.48 0.39 0.30 0.28 0.43 0.79 1.40 1.90 2.00 2.04 2.12 1.88 1.45 1.18 1.09 1.12
0.00 0.00 0.00 0.00 0.00 0.01 0.01 0.02 0.03 0.05 0.11 0.12 0.08 0.12 0.22 0.27 0.29 0.13 0.01 0.02 0.02 0.04 0.06 0.10 0.16 0.23 0.34 0.44 0.48 0.43 0.36 0.37 0.57 0.94 1.57 2.10 2.15 2.23 2.32 1.98 1.54 1.28 1.20
0.00 0.00 0.00 0.00 0.00 0.01 0.02 0.03 0.04 0.06 0.12 0.17 0.17 0.15 0.14 0.13 0.19 0.28 0.12 0.02 0.03 0.03 0.03 0.05 0.07 0.10 0.16 0.27 0.36 0.43 0.45 0.40 0.50 0.71 1.06 1.71 2.29 2.45 2.54 2.41 1.96 1.53 1.29
0.00 0.00 0.00 0.00 0.01 0.01 0.03 0.04 0.06 0.09 0.11 0.15 0.18 0.20 0.24 0.26 0.20 0.26 0.22 0.07 0.03 0.03 0.04 0.05 0.06 0.07 0.10 0.16 0.23 0.35 0.43 0.44 0.45 0.56 0.69 1.06 1.80 2.46 2.67 2.56 2.25 1.86 1.48
0.01 0.00 0.01 0.01 0.01 0.03 0.04 0.07 0.10 0.11 0.12 0.16 0.19 0.21 0.22 0.22 0.21 0.26 0.29 0.17 0.07 0.02 0.03 0.05 0.06 0.09 0.11 0.14 0.18 0.25 0.32 0.39 0.45 0.50 0.51 0.57 0.94 1.77 2.54 2.78 2.52 2.15 1.82
0.01 0.01 0.01 0.01 0.02 0.04 0.07 0.10 0.13 0.14 0.16 0.19 0.19 0.21 0.22 0.19 0.21 0.26 0.32 0.36 0.28 0.09 0.03 0.04 0.05 0.08 0.11 0.13 0.15 0.19 0.20 0.26 0.35 0.41 0.44 0.46 0.53 0.88 1.66 2.58 3.09 2.77 2.25
0.01 0.01 0.01 0.02 0.04 0.07 0.10 0.12 0.15 0.17 0.20 0.22 0.23 0.24 0.26 0.24 0.25 0.26 0.28 0.38 0.53 0.37 0.10 0.03 0.05 0.06 0.09 0.13 0.17 0.17 0.17 0.20 0.27 0.34 0.38 0.41 0.45 0.55 0.86 1.53 2.48 3.15 3.02
0.01 0.01 0.03 0.05 0.09 0.14 0.17 0.18 0.19 0.20 0.24 0.26 0.28 0.30 0.31 0.31 0.31 0.30 0.32 0.32 0.40 0.48 0.29 0.05 0.06 0.07 0.09 0.12 0.17 0.18 0.19 0.21 0.22 0.27 0.33 0.35 0.39 0.48 0.63 0.93 1.51 2.42 3.01
0.02 0.03 0.06 0.09 0.14 0.20 0.24 0.27 0.28 0.30 0.31 0.28 0.30 0.34 0.35 0.35 0.35 0.33 0.34 0.35 0.34 0.40 0.39 0.10 0.04 0.07 0.13 0.16 0.18 0.18 0.19 0.18 0.16 0.20 0.26 0.33 0.38 0.45 0.56 0.74 1.00 1.58 2.43
0.05 0.07 0.11 0.16 0.20 0.24 0.27 0.36 0.42 0.44 0.47 0.46 0.44 0.43 0.44 0.45 0.47 0.45 0.45 0.41 0.36 0.35 0.40 0.26 0.07 0.06 0.13 0.20 0.26 0.26 0.22 0.19 0.16 0.16 0.21 0.28 0.35 0.41 0.51 0.63 0.79 1.07 1.66
0.09 0.14 0.21 0.29 0.34 0.36 0.37 0.38 0.49 0.63 0.70 0.72 0.72 0.71 0.68 0.65 0.66 0.64 0.62 0.55 0.44 0.36 0.35 0.34 0.18 0.10 0.14 0.23 0.34 0.35 0.30 0.23 0.17 0.18 0.21 0.25 0.31 0.35 0.42 0.52 0.65 0.82 1.08
0.19 0.27 0.34 0.45 0.52 0.60 0.73 0.73 0.72 0.67 0.68 0.77 0.82 0.86 0.91 0.94 0.94 0.89 0.87 0.72 0.57 0.48 0.42 0.41 0.31 0.20 0.17 0.24 0.42 0.47 0.42 0.34 0.24 0.20 0.23 0.24 0.29 0.35 0.37 0.39 0.44 0.58 0.83
0.26 0.34 0.39 0.40 0.43 0.65 1.11 1.27 0.99 0.63 0.53 0.54 0.58 0.62 0.73 0.89 1.02 1.10 1.14 0.99 0.85 0.79 0.68 0.60 0.49 0.37 0.30 0.35 0.49 0.55 0.60 0.53 0.45 0.34 0.27 0.23 0.24 0.26 0.27 0.31 0.39 0.49 0.66
0.19 0.29 0.35 0.33 0.32 0.53 0.98 1.13 0.75 0.44 0.37 0.36 0.38 0.38 0.43 0.59 0.71 0.83 0.98 1.04 1.10 1.16 1.08 0.91 0.73 0.58 0.43 0.40 0.48 0.65 0.72 0.77 0.72 0.51 0.43 0.36 0.31 0.29 0.26 0.25 0.30 0.38 0.53
0.12 0.17 0.19 0.17 0.20 0.39 0.76 0.87 0.55 0.27 0.21 0.19 0.21 0.22 0.23 0.32 0.45 0.50 0.59 0.70 0.85 1.01 1.15 1.14 1.07 0.81 0.57 0.48 0.57 0.72 0.78 0.83 0.76 0.67 0.68 0.66 0.54 0.43 0.35 0.34 0.38 0.39 0.46
0.10 0.12 0.11 0.07 0.07 0.20 0.57 0.75 0.47 0.20 0.13 0.13 0.16 0.14 0.13 0.18 0.33 0.44 0.54 0.54 0.55 0.71 0.96 1.14 1.24 1.06 0.80 0.69 0.79 0.94 1.02 1.02 0.91 0.89 0.92 0.94 0.74 0.59 0.54 0.50 0.47 0.42 0.42
0.08 0.10 0.09 0.05 0.03 0.08 0.40 0.73 0.55 0.21 0.13 0.12 0.13 0.14 0.12 0.12 0.28 0.44 0.46 0.41 0.37 0.47 0.61 0.86 1.05 1.07 0.99 0.97 1.03 1.23 1.32 1.35 1.27 1.11 1.09 1.12 0.99 0.78 0.72 0.72 0.65 0.53 0.45
0.04 0.05 0.06 0.04 0.02 0.03 0.22 0.65 0.70 0.29 0.16 0.12 0.11 0.11 0.18 0.24 0.33 0.38 0.37 0.37 0.41 0.39 0.38 0.44 0.51 0.61 0.67 0.70 0.89 1.12 1.24 1.32 1.34 1.39 1.25 1.16 1.20 1.11 1.12 0.95 0.77 0.55 0.45

GEFSMA_prec_meanprecacc_114.txt.gz
Total_Precipitation_Accumulation
0.11 0.11 0.11 0.12 0.12 0.13 0.14 0.16 0.17 0.16 0.16 0.16 0.17 0.18 0.21 0.23 0.21 0.17 0.14 0.12 0.08 0.08 0.14 0.30 0.54 0.80 1.01 1.12 1.13 0.99 0.91 0.79 0.62 0.52 0.50 0.57 0.60 0.59 0.62 0.72 0.68 0.57 0.53
0.03 0.03 0.03 0.03 0.02 0.02 0.02 0.03 0.04 0.05 0.06 0.08 0.09 0.11 0.13 0.16 0.18 0.19 0.19 0.21 0.16 0.13 0.14 0.20 0.34 0.56 0.87 1.10 1.21 1.19 1.06 0.97 0.80 0.63 0.55 0.55 0.60 0.60 0.60 0.65 0.73 0.69 0.58
0.02 0.02 0.01 0.01 0.00 0.00 0.00 0.00 0.00 0.01 0.01 0.02 0.03 0.05 0.07 0.08 0.12 0.15 0.18 0.22 0.23 0.20 0.17 0.20 0.27 0.42 0.71 1.01 1.20 1.34 1.25 1.12 1.01 0.87 0.68 0.56 0.58 0.62 0.61 0.63 0.69 0.76 0.73
0.01 0.01 0.01 0.01 0.00 0.01 0.01 0.01 0.01 0.01 0.01 0.01 0.02 0.03 0.05 0.06 0.06 0.09 0.14 0.16 0.19 0.21 0.20 0.20 0.28 0.42 0.60 0.86 1.13 1.39 1.50 1.34 1.25 1.19 1.00 0.77 0.62 0.63 0.64 0.63 0.68 0.76 0.84
0.01 0.01 0.01 0.01 0.01 0.01 0.02 0.02 0.02 0.02 0.01 0.01 0.02 0.02 0.02 0.04 0.05 0.08 0.11 0.14 0.17 0.18 0.20 0.21 0.25 0.34 0.47 0.70 1.04 1.38 1.72 1.76 1.59 1.46 1.30 1.11 0.88 0.71 0.69 0.66 0.69 0.77 0.86
0.01 0.01 0.01 0.01 0.01 0.01 0.01 0.01 0.02 0.02 0.02 0.02 0.02 0.01 0.00 0.01 0.02 0.05 0.07 0.12 0.16 0.17 0.19 0.24 0.27 0.25 0.27 0.39 0.63 1.01 1.38 1.73 1.80 1.71 1.61 1.42 1.21 0.98 0.83 0.76 0.74 0.81 0.91
0.00 0.00 0.01 0.01 0.01 0.01 0.01 0.01 0.02 0.03 0.02 0.02 0.02 0.01 0.00 0.00 0.01 0.02 0.07 0.12 0.17 0.23 0.29 0.34 0.40 0.38 0.30 0.29 0.32 0.46 0.80 1.29 1.66 1.83 1.83 1.77 1.55 1.28 1.06 0.91 0.86 0.89 0.96
0.00 0.00 0.00 0.00 0.01 0.01 0.01 0.01 0.02 0.04 0.04 0.03 0.07 0.11 0.05 0.01 0.00 0.01 0.04 0.09 0.17 0.27 0.39 0.44 0.49 0.50 0.46 0.36 0.25 0.25 0.37 0.73 1.28 1.75 1.89 1.91 1.94 1.73 1.37 1.13 1.00 1.01 1.06
0.00 0.00 0.00 0.00 0.00 0.01 0.01 0.01 0.02 0.04 0.06 0.04 0.07 0.24 0.32 0.16 0.05 0.00 0.01 0.04 0.08 0.12 0.20 0.29 0.36 0.41 0.47 0.48 0.39 0.30 0.28 0.43 0.79 1.40 1.90 2.00 2.04 2.12 1.88 1.45 1.19 1.10 1.13
0.00 0.00 0.00 0.00 0.01 0.01 0.01 0.02 0.03 0.05 0.11 0.12 0.08 0.12 0.22 0.27 0.29 0.13 0.01 0.02 0.02 0.04 0.06 0.10 0.16 0.23 0.34 0.44 0.48 0.43 0.36 0.37 0.57 0.94 1.57 2.10 2.16 2.24 2.33 1.99 1.55 1.29 1.21
0.00 0.00 0.00 0.00 0.00 0.01 0.02 0.03 0.04 0.06 0.12 0.17 0.17 0.15 0.14 0.13 0.19 0.28 0.12 0.02 0.03 0.03 0.03 0.05 0.07 0.10 0.16 0.27 0.36 0.43 0.45 0.40 0.50 0.71 1.06 1.71 2.29 2.45 2.55 2.42 1.97 1.55 1.30
0.00 0.00 0.00 0.00 0.01 0.01 0.03 0.04 0.06 0.09 0.11 0.15 0.18 0.20 0.24 0.26 0.20 0.26 0.22 0.07 0.03 0.03 0.04 0.05 0.06 0.07 0.10 0.16 0.23 0.35 0.43 0.44 0.45 0.56 0.69 1.07 1.81 2.46 2.67 2.57 2.26 1.87 1.49
0.01 0.01 0.01 0.01 0.01 0.03 0.04 0.07 0.10 0.11 0.12 0.16 0.19 0.21 0.22 0.22 0.21 0.26 0.29 0.17 0.07 0.02 0.03 0.05 0.06 0.09 0.11 0.14 0.18 0.25 0.32 0.39 0.45 0.50 0.51 0.58 0.95 1.77 2.55 2.78 2.53 2.16 1.84
0.01 0.01 0.01 0.01 0.02 0.04 0.07 0.10 0.13 0.14 0.16 0.19 0.19 0.21 0.22 0.19 0.21 0.26 0.32 0.36 0.28 0.09 0.03 0.04 0.05 0.08 0.11 0.13 0.15 0.19 0.20 0.26 0.35 0.42 0.44 0.46 0.54 0.89 1.67 2.58 3.11 2.78 2.27
0.01 0.01 0.01 0.02 0.04 0.07 0.10 0.12 0.15 0.17 0.20 0.22 0.23 0.24 0.26 0.24 0.25 0.26 0.28 0.38 0.53 0.37 0.10 0.03 0.05 0.06 0.09 0.13 0.17 0.17 0.17 0.20 0.27 0.34 0.38 0.41 0.46 0.56 0.88 1.54 2.50 3.17 3.04
0.01 0.01 0.03 0.05 0.09 0.14 0.17 0.18 0.19 0.20 0.24 0.26 0.28 0.30 0.31 0.31 0.31 0.30 0.32 0.32 0.40 0.48 0.29 0.05 0.06 0.07 0.09 0.12 0.17 0.18 0.19 0.21 0.23 0.28 0.33 0.36 0.40 0.49 0.64 0.95 1.53 2.44 3.03
0.02 0.03 0.06 0.09 0.14 0.20 0.24 0.27 0.28 0.30 0.31 0.28 0.30 0.34 0.35 0.35 0.35 0.33 0.34 0.35 0.34 0.40 0.39 0.10 0.04 0.07 0.13 0.16 0.18 0.18 0.19 0.18 0.16 0.20 0.27 0.34 0.38 0.46 0.58 0.76 1.02 1.60 2.46
0.05 0.07 0.11 0.16 0.20 0.24 0.27 0.36 0.42 0.44 0.47 0.46 0.44 0.43 0.44 0.45 0.47 0.45 0.45 0.41 0.36 0.35 0.40 0.26 0.07 0.06 0.13 0.20 0.26 0.26 0.22 0.19 0.16 0.16 0.21 0.29 0.36 0.42 0.53 0.65 0.82 1.10 1.68
0.09 0.14 0.21 0.29 0.34 0.36 0.37 0.38 0.49 0.63 0.70 0.72 0.72 0.71 0.68 0.65 0.66 0.64 0.62 0.55 0.44 0.36 0.35 0.34 0.18 0.10 0.14 0.23 0.34 0.35 0.30 0.23 0.17 0.18 0.21 0.25 0.31 0.36 0.43 0.54 0.68 0.84 1.11
0.19 0.27 0.34 0.45 0.52 0.60 0.73 0.73 0.72 0.67 0.68 0.77 0.82 0.86 0.91 0.94 0.94 0.89 0.87 0.72 0.57 0.48 0.42 0.42 0.32 0.20 0.18 0.24 0.42 0.47 0.43 0.34 0.25 0.20 0.23 0.24 0.29 0.35 0.37 0.40 0.45 0.59 0.84
0.26 0.34 0.39 0.40 0.43 0.65 1.11 1.27 0.99 0.63 0.53 0.54 0.58 0.62 0.73 0.89 1.02 1.10 1.14 1.00 0.85 0.80 0.69 0.61 0.50 0.39 0.30 0.36 0.50 0.56 0.61 0.54 0.45 0.34 0.28 0.23 0.24 0.26 0.27 0.31 0.39 0.50 0.66
0.19 0.29 0.35 0.33 0.32 0.53 0.98 1.13 0.75 0.44 0.37 0.36 0.38 0.38 0.43 0.59 0.71 0.83 0.98 1.04 1.10 1.17 1.09 0.93 0.75 0.60 0.44 0.41 0.50 0.67 0.74 0.79 0.73 0.52 0.44 0.37 0.32 0.30 0.26 0.25 0.30 0.39 0.54
0.12 0.17 0.19 0.17 0.20 0.39 0.76 0.87 0.55 0.27 0.21 0.19 0.21 0.22 0.23 0.32 0.45 0.50 0.59 0.70 0.85 1.01 1.16 1.16 1.09 0.82 0.59 0.49 0.59 0.74 0.81 0.87 0.79 0.69 0.70 0.68 0.55 0.44 0.36 0.34 0.38 0.40 0.47
0.10 0.12 0.11 0.07 0.07 0.20 0.57 0.75 0.47 0.20 0.13 0.13 0.16 0.14 0.13 0.18 0.33 0.44 0.54 0.54 0.56 0.71 0.96 1.14 1.25 1.06 0.81 0.70 0.82 0.99 1.08 1.08 0.95 0.90 0.93 0.96 0.75 0.60 0.54 0.50 0.48 0.43 0.43
0.08 0.10 0.09 0.05 0.03 0.08 0.40 0.73 0.55 0.21 0.13 0.12 0.13 0.14 0.12 0.12 0.28 0.44 0.47 0.42 0.38 0.48 0.62 0.87 1.06 1.09 1.02 1.00 1.07 1.27 1.37 1.40 1.30 1.12 1.10 1.14 0.99 0.78 0.73 0.73 0.65 0.54 0.45
0.04 0.05 0.06 0.04 0.02 0.03 0.22 0.65 0.70 0.29 0.16 0.12 0.11 0.11 0.18 0.24 0.33 0.39 0.38 0.39 0.42 0.40 0.39 0.45 0.52 0.62 0.68 0.71 0.89 1.14 1.26 1.35 1.37 1.41 1.26 1.18 1.22 1.13 1.14 0.96 0.77 0.56 0.46

GEFSMA_prec_meanprecacc_120.txt.gz
Total_Precipitation_Accumulation
0.11 0.11 0.12 0.12 0.12 0.13 0.14 0.16 0.17 0.16 0.16 0.16 0.17 0.18 0.21 0.23 0.21 0.17 0.14 0.12 0.08 0.08 0.14 0.30 0.54 0.80 1.01 1.13 1.14 1.00 0.92 0.79 0.63 0.54 0.51 0.58 0.61 0.61 0.64 0.73 0.70 0.58 0.54
0.04 0.03 0.03 0.03 0.02 0.02 0.02 0.03 0.04 0.05 0.06 0.08 0.09 0.11 0.13 0.16 0.18 0.19 0.19 0.21 0.16 0.13 0.14 0.20 0.34 0.57 0.87 1.10 1.21 1.19 1.06 0.97 0.81 0.64 0.56 0.55 0.61 0.61 0.61 0.67 0.74 0.71 0.59
0.02 0.02 0.02 0.01 0.01 0.00 0.00 0.00 0.01 0.01 0.01 0.02 0.03 0.05 0.07 0.08 0.12 0.15 0.18 0.22 0.23 0.20 0.17 0.20 0.27 0.42 0.71 1.01 1.20 1.34 1.25 1.12 1.01 0.87 0.68 0.56 0.58 0.63 0.61 0.63 0.70 0.77 0.74
0.01 0.01 0.01 0.01 0.01 0.01 0.01 0.01 0.01 0.01 0.01 0.02 0.02 0.03 0.06 0.07 0.06 0.09 0.14 0.16 0.19 0.21 0.20 0.20 0.28 0.42 0.60 0.86 1.13 1.39 1.50 1.34 1.25 1.19 1.00 0.77 0.62 0.63 0.65 0.63 0.69 0.77 0.85
0.01 0.01 0.02 0.01 0.01 0.02 0.02 0.03 0.02 0.02 0.02 0.02 0.02 0.02 0.02 0.04 0.05 0.08 0.11 0.14 0.17 0.18 0.20 0.21 0.25 0.34 0.47 0.70 1.04 1.38 1.72 1.76 1.59 1.46 1.30 1.12 0.88 0.71 0.69 0.67 0.69 0.78 0.86
0.01 0.01 0.01 0.01 0.01 0.01 0.02 0.02 0.02 0.02 0.02 0.02 0.02 0.01 0.00 0.01 0.02 0.05 0.07 0.12 0.16 0.17 0.19 0.24 0.27 0.25 0.27 0.39 0.63 1.01 1.38 1.73 1.80 1.71 1.61 1.42 1.21 0.98 0.83 0.76 0.74 0.82 0.92
0.01 0.01 0.01 0.01 0.01 0.01 0.02 0.02 0.02 0.03 0.02 0.02 0.02 0.01 0.00 0.00 0.01 0.02 0.07 0.12 0.17 0.23 0.29 0.34 0.40 0.38 0.30 0.29 0.32 0.46 0.80 1.29 1.66 1.83 1.83 1.77 1.55 1.28 1.07 0.91 0.86 0.90 0.96
0.00 0.00 0.01 0.01 0.01 0.01 0.01 0.01 0.02 0.04 0.04 0.03 0.07 0.11 0.05 0.01 0.00 0.01 0.04 0.09 0.17 0.27 0.39 0.44 0.49 0.50 0.46 0.36 0.25 0.25 0.37 0.73 1.28 1.75 1.89 1.91 1.95 1.73 1.37 1.13 1.01 1.01 1.07
0.00 0.00 0.00 0.00 0.01 0.01 0.01 0.01 0.02 0.04 0.06 0.04 0.07 0.24 0.32 0.16 0.05 0.00 0.01 0.04 0.08 0.12 0.20 0.29 0.36 0.41 0.47 0.48 0.39 0.30 0.28 0.43 0.79 1.40 1.90 2.01 2.04 2.12 1.89 1.46 1.20 1.11 1.14
0.00 0.00 0.00 0.00 0.01 0.01 0.01 0.02 0.03 0.05 0.11 0.12 0.08 0.12 0.22 0.27 0.29 0.13 0.01 0.02 0.02 0.04 0.06 0.10 0.16 0.23 0.34 0.44 0.48 0.43 0.36 0.37 0.57 0.94 1.57 2.10 2.16 2.24 2.34 2.00 1.56 1.31 1.22
0.00 0.00 0.00 0.00 0.00 0.01 0.02 0.03 0.04 0.06 0.12 0.17 0.17 0.15 0.14 0.13 0.19 0.28 0.12 0.02 0.03 0.03 0.03 0.05 0.07 0.10 0.16 0.27 0.36 0.43 0.45 0.40 0.50 0.71 1.06 1.71 2.30 2.46 2.56 2.43 1.98 1.56 1.32
0.00 0.00 0.00 0.01 0.01 0.01 0.03 0.04 0.06 0.09 0.11 0.15 0.18 0.20 0.24 0.26 0.20 0.26 0.22 0.07 0.03 0.03 0.04 0.05 0.06 0.07 0.10 0.16 0.23 0.35 0.43 0.44 0.45 0.56 0.69 1.07 1.81 2.47 2.68 2.58 2.27 1.88 1.51
0.01 0.01 0.01 0.01 0.02 0.03 0.04 0.07 0.10 0.11 0.12 0.16 0.19 0.21 0.22 0.22 0.21 0.26 0.29 0.17 0.07 0.02 0.03 0.05 0.06 0.09 0.11 0.14 0.18 0.25 0.32 0.39 0.45 0.50 0.51 0.58 0.95 1.78 2.56 2.79 2.54 2.18 1.85
0.01 0.01 0.01 0.01 0.02 0.04 0.07 0.10 0.13 0.14 0.16 0.19 0.19 0.21 0.22 0.19 0.21 0.26 0.32 0.36 0.28 0.09 0.03 0.04 0.05 0.08 0.11 0.13 0.15 0.19 0.20 0.26 0.35 0.42 0.44 0.46 0.54 0.89 1.67 2.59 3.12 2.80 2.28
0.01 0.01 0.01 0.03 0.04 0.07 0.10 0.12 0.15 0.17 0.20 0.22 0.23 0.24 0.26 0.24 0.25 0.26 0.28 0.38 0.53 0.37 0.10 0.03 0.05 0.06 0.09 0.13 0.17 0.17 0.17 0.20 0.27 0.34 0.38 0.41 0.46 0.57 0.88 1.55 2.51 3.18 3.06
0.01 0.01 0.03 0.05 0.09 0.14 0.17 0.18 0.19 0.20 0.24 0.26 0.28 0.30 0.31 0.31 0.31 0.30 0.32 0.32 0.40 0.48 0.29 0.05 0.06 0.07 0.09 0.12 0.17 0.18 0.19 0.21 0.23 0.28 0.33 0.36 0.41 0.50 0.65 0.96 1.54 2.46 3.05
0.02 0.03 0.06 0.09 0.14 0.20 0.24 0.27 0.28 0.30 0.31 0.28 0.30 0.34 0.35 0.35 0.35 0.33 0.34 0.35 0.34 0.40 0.39 0.10 0.04 0.07 0.13 0.16 0.18 0.18 0.19 0.18 0.16 0.20 0.27 0.34 0.39 0.47 0.59 0.77 1.04 1.62 2.49
0.05 0.07 0.11 0.16 0.20 0.24 0.27 0.36 0.42 0.44 0.47 0.46 0.44 0.43 0.44 0.45 0.47 0.45 0.45 0.41 0.36 0.35 0.40 0.26 0.07 0.06 0.13 0.20 0.26 0.26 0.22 0.19 0.16 0.16 0.21 0.29 0.36 0.42 0.53 0.67 0.84 1.12 1.71
0.09 0.14 0.21 0.29 0.34 0.36 0.37 0.38 0.49 0.63 0.70 0.72 0.72 0.71 0.68 0.65 0.66 0.64 0.62 0.55 0.44 0.36 0.35 0.34 0.18 0.10 0.14 0.23 0.34 0.35 0.30 0.23 0.17 0.18 0.21 0.25 0.31 0.36 0.44 0.55 0.69 0.86 1.12
0.19 0.27 0.34 0.45 0.52 0.60 0.73 0.73 0.72 0.67 0.68 0.77 0.82 0.86 0.91 0.94 0.94 0.89 0.87 0.72 0.57 0.48 0.42 0.42 0.32 0.21 0.18 0.24 0.42 0.48 0.43 0.34 0.25 0.20 0.23 0.24 0.29 0.36 0.38 0.40 0.46 0.60 0.85
0.26 0.34 0.39 0.41 0.43 0.65 1.11 1.27 0.99 0.63 0.53 0.54 0.58 0.62 0.73 0.89 1.02 1.10 1.14 1.00 0.86 0.80 0.69 0.61 0.50 0.39 0.31 0.36 0.50 0.56 0.61 0.55 0.46 0.35 0.28 0.23 0.24 0.26 0.27 0.31 0.39 0.50 0.67
0.19 0.29 0.35 0.33 0.32 0.53 0.99 1.13 0.75 0.44 0.37 0.36 0.38 0.38 0.43 0.59 0.71 0.83 0.98 1.04 1.10 1.17 1.10 0.93 0.76 0.61 0.45 0.42 0.50 0.68 0.75 0.81 0.74 0.53 0.45 0.37 0.32 0.30 0.26 0.25 0.30 0.39 0.55
0.12 0.17 0.19 0.17 0.20 0.39 0.77 0.87 0.55 0.27 0.21 0.19 0.21 0.22 0.23 0.32 0.45 0.50 0.59 0.70 0.85 1.02 1.16 1.16 1.09 0.83 0.59 0.49 0.60 0.76 0.82 0.89 0.81 0.69 0.71 0.69 0.56 0.44 0.36 0.34 0.39 0.41 0.48
0.10 0.12 0.11 0.07 0.07 0.20 0.57 0.75 0.47 0.20 0.13 0.13 0.16 0.14 0.13 0.18 0.33 0.44 0.54 0.54 0.56 0.71 0.97 1.15 1.25 1.07 0.82 0.71 0.84 1.01 1.11 1.10 0.97 0.91 0.94 0.97 0.76 0.61 0.55 0.50 0.48 0.43 0.44
0.08 0.10 0.09 0.05 0.03 0.08 0.40 0.74 0.55 0.21 0.13 0.12 0.13 0.14 0.12 0.12 0.28 0.44 0.47 0.42 0.38 0.48 0.62 0.87 1.07 1.10 1.03 1.01 1.09 1.30 1.40 1.43 1.33 1.13 1.10 1.15 1.00 0.79 0.73 0.73 0.66 0.54 0.46
0.04 0.06 0.06 0.04 0.02 0.03 0.22 0.65 0.70 0.29 0.16 0.12 0.11 0.11 0.18 0.24 0.33 0.39 0.38 0.39 0.43 0.40 0.39 0.45 0.53 0.63 0.69 0.72 0.90 1.15 1.28 1.39 1.40 1.43 1.26 1.19 1.23 1.15 1.16 0.96 0.77 0.56 0.46

GEFSMA_prec_meanprecacc_126.txt.gz
Total_Precipitation_Accumulation
0.11 0.11 0.12 0.12 0.12 0.13 0.14 0.16 0.17 0.16 0.16 0.16 0.17 0.18 0.21 0.23 0.21 0.17 0.14 0.12 0.08 0.08 0.14 0.30 0.55 0.81 1.02 1.13 1.14 1.00 0.92 0.80 0.63 0.54 0.52 0.59 0.62 0.61 0.65 0.74 0.71 0.60 0.56
0.04 0.03 0.03 0.03 0.02 0.02 0.02 0.03 0.04 0.05 0.06 0.08 0.09 0.11 0.13 0.16 0.18 0.19 0.19 0.21 0.16 0.13 0.14 0.20 0.34 0.57 0.88 1.10 1.21 1.19 1.06 0.98 0.81 0.64 0.56 0.56 0.61 0.61 0.61 0.67 0.75 0.71 0.60
0.02 0.02 0.02 0.01 0.01 0.00 0.00 0.00 0.01 0.01 0.01 0.02 0.03 0.05 0.07 0.08 0.12 0.15 0.18 0.22 0.23 0.20 0.17 0.20 0.27 0.42 0.71 1.01 1.20 1.34 1.26 1.12 1.01 0.87 0.68 0.56 0.58 0.63 0.62 0.64 0.71 0.78 0.74
0.01 0.01 0.01 0.01 0.01 0.01 0.01 0.01 0.01 0.01 0.01 0.02 0.02 0.03 0.06 0.07 0.06 0.09 0.14 0.16 0.19 0.21 0.20 0.20 0.28 0.42 0.60 0.86 1.13 1.39 1.50 1.34 1.25 1.19 1.00 0.77 0.62 0.63 0.65 0.64 0.69 0.78 0.85
0.01 0.01 0.02 0.01 0.01 0.02 0.02 0.03 0.02 0.02 0.02 0.02 0.02 0.02 0.02 0.04 0.05 0.08 0.11 0.14 0.17 0.18 0.20 0.21 0.25 0.34 0.47 0.70 1.04 1.38 1.72 1.76 1.59 1.46 1.30 1.12 0.88 0.71 0.69 0.67 0.70 0.78 0.87
0.01 0.01 0.01 0.01 0.01 0.01 0.02 0.02 0.02 0.02 0.02 0.02 0.02 0.01 0.00 0.01 0.02 0.05 0.07 0.12 0.16 0.17 0.19 0.24 0.27 0.25 0.27 0.39 0.63 1.01 1.38 1.73 1.80 1.71 1.61 1.42 1.21 0.98 0.83 0.77 0.75 0.82 0.93
0.01 0.01 0.01 0.01 0.01 0.01 0.02 0.02 0.02 0.03 0.02 0.02 0.02 0.01 0.00 0.00 0.01 0.02 0.07 0.12 0.17 0.23 0.29 0.34 0.40 0.38 0.30 0.29 0.32 0.46 0.80 1.29 1.66 1.83 1.83 1.77 1.55 1.29 1.07 0.92 0.87 0.90 0.98
0.01 0.01 0.01 0.01 0.01 0.01 0.01 0.01 0.02 0.04 0.04 0.03 0.07 0.11 0.05 0.01 0.00 0.01 0.04 0.09 0.17 0.27 0.39 0.44 0.49 0.50 0.46 0.36 0.25 0.25 0.37 0.73 1.28 1.75 1.89 1.91 1.95 1.74 1.38 1.14 1.01 1.02 1.08
0.00 0.00 0.00 0.01 0.01 0.01 0.01 0.01 0.02 0.04 0.06 0.04 0.07 0.24 0.32 0.16 0.05 0.00 0.01 0.04 0.08 0.12 0.20 0.29 0.36 0.41 0.47 0.48 0.39 0.30 0.28 0.43 0.79 1.40 1.90 2.01 2.04 2.13 1.89 1.47 1.21 1.12 1.15
0.00 0.00 0.00 0.00 0.01 0.01 0.02 0.02 0.03 0.05 0.11 0.12 0.08 0.12 0.22 0.27 0.29 0.13 0.01 0.02 0.02 0.04 0.06 0.10 0.16 0.23 0.34 0.44 0.48 0.43 0.36 0.37 0.57 0.94 1.57 2.10 2.16 2.25 2.35 2.01 1.57 1.32 1.23
0.00 0.00 0.00 0.00 0.00 0.01 0.02 0.03 0.04 0.06 0.12 0.17 0.17 0.15 0.14 0.13 0.19 0.28 0.12 0.02 0.03 0.03 0.03 0.05 0.07 0.10 0.16 0.27 0.36 0.43 0.45 0.40 0.50 0.71 1.07 1.71 2.30 2.46 2.57 2.44 1.99 1.57 1.33
0.01 0.00 0.00 0.01 0.01 0.01 0.03 0.04 0.06 0.09 0.11 0.15 0.18 0.20 0.24 0.26 0.20 0.26 0.22 0.07 0.03 0.03 0.04 0.05 0.06 0.07 0.10 0.16 0.23 0.35 0.43 0.44 0.45 0.56 0.69 1.07 1.81 2.47 2.68 2.59 2.28 1.89 1.52
0.01 0.01 0.01 0.01 0.02 0.03 0.04 0.07 0.10 0.11 0.12 0.16 0.19 0.21 0.22 0.22 0.21 0.26 0.29 0.17 0.07 0.02 0.03 0.05 0.06 0.09 0.11 0.14 0.18 0.25 0.32 0.39 0.45 0.50 0.51 0.58 0.95 1.78 2.56 2.80 2.55 2.19 1.87
0.01 0.01 0.01 0.01 0.02 0.04 0.07 0.10 0.13 0.14 0.16 0.19 0.19 0.21 0.22 0.19 0.21 0.26 0.32 0.36 0.28 0.09 0.03 0.04 0.05 0.08 0.11 0.13 0.15 0.19 0.20 0.26 0.35 0.42 0.44 0.46 0.54 0.89 1.68 2.60 3.12 2.81 2.30
0.01 0.01 0.01 0.03 0.04 0.07 0.10 0.12 0.15 0.17 0.20 0.22 0.23 0.24 0.26 0.24 0.25 0.26 0.28 0.38 0.53 0.37 0.10 0.03 0.05 0.06 0.09 0.13 0.17 0.17 0.17 0.20 0.27 0.35 0.38 0.41 0.46 0.57 0.89 1.56 2.52 3.19 3.07
0.01 0.01 0.03 0.06 0.10 0.14 0.17 0.18 0.19 0.20 0.24 0.26 0.28 0.30 0.31 0.31 0.31 0.30 0.32 0.32 0.40 0.48 0.29 0.05 0.06 0.07 0.09 0.12 0.17 0.18 0.19 0.21 0.23 0.28 0.33 0.36 0.41 0.50 0.66 0.96 1.55 2.47 3.06
0.02 0.03 0.06 0.09 0.14 0.20 0.24 0.28 0.28 0.30 0.31 0.28 0.30 0.34 0.35 0.35 0.35 0.33 0.34 0.35 0.34 0.40 0.39 0.10 0.04 0.07 0.13 0.16 0.18 0.18 0.19 0.18 0.16 0.20 0.27 0.34 0.39 0.47 0.59 0.77 1.05 1.63 2.50
0.05 0.07 0.11 0.16 0.20 0.24 0.28 0.36 0.42 0.44 0.47 0.46 0.44 0.43 0.44 0.45 0.47 0.45 0.45 0.41 0.36 0.35 0.40 0.26 0.07 0.06 0.13 0.20 0.26 0.26 0.22 0.19 0.16 0.16 0.21 0.29 0.36 0.43 0.54 0.67 0.85 1.14 1.72
0.09 0.14 0.21 0.29 0.34 0.36 0.37 0.38 0.49 0.63 0.70 0.72 0.72 0.71 0.68 0.65 0.66 0.64 0.62 0.55 0.44 0.36 0.35 0.34 0.18 0.10 0.14 0.23 0.34 0.35 0.30 0.23 0.17 0.18 0.21 0.25 0.31 0.37 0.44 0.56 0.70 0.87 1.13
0.20 0.27 0.35 0.45 0.53 0.61 0.73 0.73 0.72 0.67 0.69 0.77 0.82 0.86 0.91 0.94 0.94 0.89 0.87 0.72 0.57 0.48 0.42 0.42 0.32 0.21 0.18 0.24 0.42 0.48 0.43 0.34 0.25 0.20 0.23 0.25 0.30 0.36 0.38 0.41 0.46 0.60 0.86
0.27 0.35 0.39 0.41 0.43 0.65 1.11 1.27 0.99 0.63 0.53 0.54 0.58 0.62 0.73 0.89 1.02 1.10 1.14 1.00 0.86 0.80 0.69 0.61 0.50 0.39 0.31 0.36 0.51 0.57 0.62 0.55 0.46 0.35 0.28 0.23 0.24 0.26 0.27 0.31 0.39 0.50 0.68
0.19 0.29 0.36 0.33 0.32 0.53 0.99 1.13 0.76 0.44 0.37 0.36 0.38 0.38 0.43 0.59 0.71 0.83 0.98 1.04 1.10 1.17 1.10 0.93 0.76 0.61 0.45 0.42 0.50 0.68 0.75 0.82 0.75 0.53 0.45 0.37 0.32 0.30 0.26 0.25 0.30 0.40 0.56
0.12 0.17 0.19 0.17 0.20 0.39 0.77 0.88 0.55 0.27 0.21 0.19 0.21 0.22 0.23 0.32 0.45 0.50 0.59 0.71 0.85 1.02 1.16 1.16 1.10 0.83 0.59 0.50 0.60 0.76 0.83 0.90 0.82 0.70 0.71 0.70 0.56 0.44 0.36 0.34 0.39 0.41 0.49
0.10 0.12 0.11 0.07 0.08 0.20 0.57 0.75 0.48 0.21 0.14 0.13 0.16 0.15 0.13 0.18 0.33 0.44 0.54 0.54 0.56 0.71 0.97 1.15 1.25 1.07 0.82 0.71 0.84 1.02 1.12 1.11 0.97 0.91 0.95 0.98 0.76 0.61 0.55 0.50 0.48 0.43 0.44
0.08 0.10 0.09 0.05 0.03 0.08 0.41 0.74 0.55 0.21 0.14 0.12 0.13 0.14 0.13 0.12 0.29 0.44 0.47 0.42 0.38 0.48 0.62 0.87 1.07 1.10 1.04 1.02 1.10 1.31 1.41 1.45 1.34 1.13 1.10 1.15 1.00 0.79 0.73 0.73 0.66 0.54 0.46
0.04 0.06 0.06 0.04 0.02 0.03 0.22 0.65 0.70 0.29 0.17 0.12 0.11 0.11 0.18 0.24 0.34 0.40 0.39 0.39 0.43 0.40 0.39 0.46 0.53 0.63 0.69 0.72 0.91 1.16 1.29 1.40 1.42 1.45 1.27 1.19 1.23 1.16 1.18 0.96 0.77 0.56 0.46

GEFSMA_prec_meanprecacc_132.txt.gz
Total_Precipitation_Accumulation
0.11 0.11 0.12 0.12 0.12 0.13 0.14 0.16 0.17 0.16 0.16 0.16 0.17 0.18 0.21 0.23 0.21 0.17 0.14 0.12 0.08 0.08 0.14 0.30 0.55 0.81 1.02 1.13 1.14 1.00 0.92 0.80 0.63 0.55 0.52 0.59 0.62 0.61 0.65 0.75 0.72 0.60 0.57
0.04 0.03 0.03 0.03 0.02 0.02 0.02 0.03 0.04 0.05 0.06 0.08 0.09 0.11 0.13 0.16 0.18 0.19 0.19 0.21 0.16 0.13 0.14 0.20 0.34 0.57 0.88 1.10 1.21 1.19 1.06 0.98 0.81 0.64 0.56 0.56 0.61 0.61 0.61 0.67 0.75 0.72 0.61
0.02 0.02 0.02 0.01 0.01 0.00 0.00 0.00 0.01 0.01 0.01 0.02 0.03 0.05 0.07 0.08 0.12 0.15 0.18 0.22 0.23 0.20 0.17 0.20 0.27 0.42 0.71 1.01 1.20 1.34 1.26 1.12 1.01 0.87 0.68 0.57 0.59 0.63 0.62 0.64 0.71 0.78 0.75
0.01 0.01 0.01 0.01 0.01 0.01 0.01 0.01 0.01 0.01 0.01 0.02 0.02 0.03 0.06 0.07 0.06 0.09 0.14 0.16 0.19 0.21 0.20 0.20 0.28 0.42 0.60 0.86 1.13 1.39 1.50 1.34 1.25 1.19 1.00 0.77 0.62 0.63 0.65 0.64 0.70 0.78 0.86
0.01 0.01 0.02 0.01 0.01 0.02 0.02 0.03 0.02 0.02 0.02 0.02 0.02 0.02 0.02 0.04 0.05 0.08 0.11 0.14 0.17 0.18 0.20 0.21 0.25 0.34 0.47 0.70 1.04 1.38 1.72 1.76 1.59 1.46 1.31 1.12 0.88 0.71 0.70 0.68 0.71 0.79 0.88
0.01 0.01 0.02 0.01 0.01 0.01 0.02 0.02 0.02 0.02 0.02 0.02 0.02 0.01 0.00 0.01 0.02 0.05 0.07 0.12 0.16 0.17 0.19 0.24 0.27 0.25 0.27 0.39 0.63 1.01 1.38 1.73 1.80 1.71 1.61 1.42 1.21 0.98 0.84 0.77 0.75 0.83 0.94
0.01 0.01 0.01 0.01 0.01 0.01 0.02 0.02 0.02 0.03 0.02 0.02 0.02 0.01 0.00 0.00 0.01 0.02 0.07 0.12 0.17 0.23 0.29 0.34 0.40 0.38 0.30 0.29 0.32 0.46 0.80 1.29 1.66 1.83 1.83 1.78 1.55 1.29 1.08 0.92 0.88 0.91 0.98
0.01 0.01 0.01 0.01 0.01 0.01 0.01 0.01 0.02 0.04 0.04 0.03 0.07 0.11 0.05 0.01 0.00 0.01 0.04 0.09 0.17 0.27 0.39 0.44 0.49 0.50 0.46 0.36 0.25 0.25 0.37 0.73 1.28 1.75 1.90 1.91 1.95 1.74 1.38 1.15 1.02 1.03 1.09
0.00 0.00 0.00 0.01 0.01 0.01 0.01 0.01 0.02 0.04 0.06 0.04 0.07 0.24 0.32 0.16 0.05 0.00 0.01 0.04 0.08 0.12 0.20 0.29 0.36 0.41 0.47 0.48 0.39 0.30 0.28 0.43 0.79 1.40 1.90 2.01 2.05 2.13 1.90 1.48 1.22 1.13 1.16
0.00 0.00 0.00 0.00 0.01 0.01 0.02 0.02 0.03 0.05 0.11 0.12 0.08 0.12 0.22 0.27 0.29 0.13 0.01 0.02 0.02 0.04 0.06 0.10 0.16 0.23 0.34 0.44 0.48 0.43 0.36 0.37 0.57 0.94 1.57 2.11 2.16 2.25 2.35 2.01 1.58 1.32 1.24
0.01 0.00 0.01 0.00 0.01 0.01 0.02 0.03 0.04 0.06 0.12 0.17 0.17 0.15 0.14 0.13 0.19 0.28 0.12 0.02 0.03 0.03 0.03 0.05 0.07 0.10 0.16 0.27 0.36 0.43 0.45 0.40 0.50 0.71 1.07 1.71 2.30 2.46 2.57 2.45 1.99 1.58 1.34
0.01 0.01 0.01 0.01 0.01 0.02 0.03 0.04 0.06 0.09 0.11 0.15 0.18 0.20 0.24 0.26 0.20 0.26 0.22 0.07 0.03 0.03 0.04 0.05 0.06 0.07 0.10 0.16 0.23 0.35 0.43 0.44 0.45 0.56 0.69 1.07 1.81 2.47 2.69 2.59 2.28 1.90 1.53
0.01 0.01 0.01 0.01 0.02 0.03 0.05 0.07 0.10 0.11 0.12 0.16 0.19 0.21 0.22 0.22 0.21 0.26 0.29 0.17 0.07 0.02 0.03 0.05 0.06 0.09 0.11 0.14 0.18 0.25 0.32 0.39 0.45 0.50 0.51 0.58 0.95 1.78 2.56 2.80 2.55 2.19 1.88
0.02 0.01 0.01 0.01 0.02 0.04 0.07 0.10 0.13 0.14 0.16 0.19 0.19 0.21 0.23 0.19 0.21 0.26 0.32 0.36 0.28 0.09 0.03 0.04 0.05 0.08 0.11 0.13 0.15 0.19 0.20 0.26 0.35 0.42 0.44 0.46 0.54 0.89 1.68 2.60 3.13 2.81 2.30
0.02 0.01 0.02 0.03 0.05 0.07 0.10 0.13 0.16 0.17 0.21 0.22 0.24 0.24 0.26 0.24 0.25 0.26 0.28 0.38 0.53 0.37 0.10 0.03 0.05 0.06 0.09 0.13 0.17 0.17 0.17 0.20 0.27 0.35 0.38 0.41 0.47 0.57 0.89 1.56 2.52 3.20 3.08
0.02 0.02 0.03 0.06 0.10 0.14 0.17 0.19 0.20 0.20 0.24 0.26 0.28 0.30 0.31 0.31 0.31 0.31 0.32 0.33 0.40 0.48 0.29 0.05 0.06 0.07 0.09 0.12 0.17 0.18 0.19 0.21 0.23 0.28 0.33 0.36 0.41 0.51 0.66 0.97 1.56 2.48 3.08
0.03 0.04 0.06 0.10 0.15 0.21 0.25 0.28 0.29 0.30 0.31 0.29 0.30 0.34 0.35 0.35 0.36 0.33 0.34 0.35 0.34 0.40 0.39 0.10 0.04 0.07 0.13 0.16 0.18 0.18 0.19 0.18 0.16 0.20 0.27 0.34 0.39 0.48 0.60 0.78 1.05 1.64 2.52
0.05 0.08 0.12 0.16 0.21 0.25 0.28 0.36 0.43 0.45 0.47 0.46 0.44 0.44 0.45 0.46 0.48 0.46 0.46 0.41 0.37 0.35 0.40 0.26 0.07 0.06 0.13 0.20 0.26 0.26 0.22 0.19 0.16 0.16 0.21 0.29 0.36 0.43 0.54 0.68 0.85 1.14 1.73
0.10 0.15 0.22 0.30 0.34 0.37 0.38 0.39 0.50 0.64 0.71 0.73 0.73 0.72 0.69 0.66 0.67 0.65 0.63 0.55 0.45 0.36 0.36 0.34 0.18 0.10 0.14 0.23 0.34 0.35 0.30 0.23 0.17 0.18 0.21 0.25 0.31 0.37 0.45 0.56 0.70 0.87 1.14
0.20 0.28 0.35 0.46 0.53 0.62 0.74 0.74 0.73 0.68 0.69 0.78 0.83 0.86 0.91 0.94 0.94 0.90 0.87 0.72 0.57 0.49 0.42 0.42 0.32 0.21 0.18 0.24 0.42 0.48 0.43 0.34 0.25 0.20 0.23 0.25 0.30 0.36 0.38 0.41 0.46 0.61 0.86
0.27 0.35 0.40 0.42 0.44 0.67 1.12 1.28 1.00 0.64 0.53 0.55 0.58 0.62 0.73 0.90 1.03 1.10 1.14 1.00 0.86 0.80 0.69 0.62 0.50 0.39 0.31 0.36 0.51 0.57 0.62 0.55 0.46 0.35 0.28 0.23 0.24 0.26 0.27 0.31 0.39 0.50 0.68
0.20 0.30 0.36 0.34 0.33 0.55 1.00 1.15 0.77 0.45 0.38 0.37 0.38 0.39 0.43 0.59 0.72 0.83 0.99 1.05 1.11 1.18 1.11 0.94 0.77 0.61 0.45 0.42 0.51 0.68 0.76 0.82 0.76 0.53 0.45 0.38 0.32 0.30 0.26 0.25 0.30 0.40 0.57
0.13 0.17 0.20 0.18 0.21 0.40 0.78 0.89 0.56 0.28 0.22 0.21 0.22 0.23 0.24 0.32 0.46 0.50 0.59 0.72 0.86 1.03 1.17 1.17 1.10 0.83 0.60 0.50 0.61 0.77 0.84 0.91 0.83 0.70 0.72 0.70 0.56 0.44 0.36 0.34 0.39 0.41 0.50
0.11 0.13 0.11 0.08 0.08 0.21 0.59 0.77 0.49 0.22 0.15 0.15 0.17 0.16 0.14 0.19 0.34 0.44 0.55 0.55 0.56 0.71 0.97 1.15 1.26 1.07 0.82 0.72 0.85 1.03 1.14 1.13 0.98 0.92 0.95 0.99 0.76 0.61 0.55 0.50 0.48 0.43 0.44
0.09 0.11 0.09 0.05 0.04 0.09 0.42 0.75 0.56 0.22 0.14 0.13 0.14 0.15 0.13 0.13 0.29 0.45 0.48 0.43 0.39 0.49 0.63 0.88 1.08 1.11 1.05 1.04 1.11 1.32 1.42 1.46 1.35 1.13 1.10 1.15 1.00 0.79 0.73 0.73 0.66 0.54 0.46
0.04 0.06 0.06 0.04 0.03 0.04 0.23 0.66 0.71 0.30 0.17 0.12 0.11 0.12 0.19 0.25 0.34 0.40 0.39 0.40 0.44 0.41 0.41 0.47 0.54 0.64 0.70 0.72 0.91 1.16 1.29 1.41 1.43 1.45 1.27 1.20 1.24 1.16 1.18 0.96 0.77 0.56 0.46

GEFSMA_prec_meanprecacc_138.txt.gz
Total_Precipitation_Accumulation
0.11 0.11 0.12 0.12 0.12 0.14 0.14 0.16 0.17 0.16 0.16 0.16 0.17 0.18 0.21 0.23 0.21 0.17 0.14 0.12 0.08 0.08 0.15 0.30 0.55 0.81 1.02 1.13 1.14 1.00 0.92 0.80 0.64 0.55 0.52 0.60 0.63 0.62 0.65 0.75 0.72 0.61 0.58
0.04 0.03 0.03 0.03 0.02 0.02 0.02 0.03 0.04 0.05 0.06 0.08 0.09 0.11 0.13 0.16 0.18 0.19 0.19 0.21 0.16 0.13 0.14 0.20 0.34 0.57 0.88 1.10 1.21 1.19 1.06 0.98 0.81 0.64 0.56 0.56 0.62 0.62 0.62 0.68 0.76 0.72 0.61
0.02 0.02 0.02 0.01 0.01 0.00 0.00 0.00 0.01 0.01 0.01 0.02 0.03 0.05 0.07 0.08 0.12 0.15 0.18 0.22 0.23 0.20 0.17 0.20 0.27 0.42 0.71 1.01 1.20 1.34 1.26 1.12 1.01 0.87 0.68 0.57 0.59 0.64 0.62 0.64 0.72 0.79 0.76
0.01 0.01 0.01 0.01 0.01 0.01 0.01 0.01 0.01 0.01 0.01 0.02 0.02 0.03 0.06 0.07 0.06 0.09 0.14 0.16 0.19 0.21 0.20 0.20 0.28 0.42 0.60 0.86 1.13 1.39 1.50 1.34 1.25 1.19 1.00 0.77 0.62 0.64 0.66 0.65 0.70 0.79 0.87
0.01 0.01 0.02 0.01 0.01 0.02 0.02 0.03 0.03 0.02 0.02 0.02 0.02 0.02 0.02 0.04 0.05 0.08 0.11 0.14 0.17 0.18 0.20 0.21 0.25 0.34 0.47 0.70 1.04 1.39 1.73 1.76 1.59 1.46 1.31 1.12 0.89 0.71 0.70 0.68 0.71 0.80 0.89
0.01 0.01 0.02 0.01 0.01 0.01 0.02 0.02 0.02 0.02 0.02 0.02 0.02 0.01 0.00 0.01 0.02 0.05 0.07 0.12 0.16 0.17 0.19 0.24 0.27 0.25 0.27 0.39 0.63 1.01 1.38 1.73 1.80 1.72 1.61 1.43 1.21 0.99 0.84 0.78 0.76 0.84 0.95
0.01 0.01 0.01 0.01 0.01 0.01 0.02 0.02 0.02 0.03 0.02 0.02 0.02 0.01 0.00 0.00 0.01 0.02 0.07 0.12 0.17 0.23 0.29 0.34 0.40 0.38 0.30 0.29 0.32 0.46 0.80 1.29 1.66 1.83 1.83 1.78 1.55 1.29 1.08 0.93 0.88 0.92 0.99
0.01 0.01 0.01 0.01 0.01 0.01 0.01 0.01 0.02 0.05 0.04 0.03 0.07 0.11 0.05 0.01 0.00 0.01 0.04 0.09 0.17 0.27 0.39 0.44 0.49 0.50 0.46 0.36 0.25 0.25 0.37 0.73 1.28 1.75 1.90 1.91 1.95 1.74 1.39 1.16 1.03 1.04 1.11
0.01 0.00 0.01 0.01 0.01 0.01 0.01 0.01 0.02 0.04 0.06 0.04 0.07 0.24 0.32 0.16 0.05 0.00 0.01 0.04 0.08 0.12 0.20 0.29 0.36 0.41 0.47 0.48 0.39 0.30 0.28 0.43 0.79 1.40 1.90 2.01 2.05 2.14 1.91 1.48 1.23 1.14 1.17
0.01 0.01 0.01 0.00 0.01 0.01 0.02 0.02 0.03 0.05 0.11 0.12 0.08 0.12 0.22 0.27 0.29 0.13 0.01 0.02 0.02 0.04 0.06 0.10 0.16 0.23 0.34 0.44 0.48 0.43 0.36 0.37 0.57 0.94 1.58 2.11 2.16 2.25 2.36 2.02 1.59 1.33 1.25
0.01 0.01 0.01 0.01 0.01 0.01 0.02 0.03 0.04 0.06 0.12 0.17 0.17 0.15 0.14 0.13 0.19 0.28 0.12 0.02 0.03 0.03 0.03 0.05 0.07 0.10 0.16 0.27 0.36 0.43 0.45 0.40 0.50 0.71 1.07 1.71 2.30 2.47 2.57 2.45 2.00 1.58 1.35
0.01 0.01 0.01 0.01 0.01 0.02 0.03 0.04 0.06 0.09 0.11 0.15 0.18 0.20 0.24 0.26 0.20 0.26 0.22 0.07 0.03 0.03 0.04 0.05 0.06 0.07 0.10 0.16 0.23 0.35 0.43 0.44 0.45 0.56 0.69 1.07 1.81 2.47 2.69 2.59 2.29 1.90 1.54
0.01 0.01 0.01 0.02 0.02 0.03 0.05 0.07 0.10 0.11 0.13 0.17 0.20 0.21 0.22 0.22 0.21 0.26 0.30 0.17 0.07 0.02 0.03 0.05 0.06 0.09 0.11 0.14 0.18 0.25 0.32 0.39 0.45 0.50 0.51 0.58 0.95 1.78 2.56 2.80 2.56 2.20 1.89
0.02 0.01 0.01 0.02 0.03 0.05 0.08 0.11 0.13 0.14 0.16 0.19 0.19 0.21 0.23 0.19 0.21 0.26 0.32 0.36 0.28 0.09 0.03 0.04 0.05 0.08 0.11 0.13 0.15 0.19 0.20 0.26 0.35 0.42 0.44 0.46 0.54 0.89 1.68 2.61 3.13 2.82 2.31
0.02 0.01 0.02 0.03 0.05 0.08 0.11 0.13 0.16 0.18 0.21 0.23 0.24 0.24 0.27 0.25 0.25 0.26 0.28 0.38 0.54 0.38 0.10 0.03 0.05 0.06 0.09 0.13 0.17 0.18 0.17 0.20 0.27 0.35 0.38 0.41 0.47 0.57 0.89 1.56 2.53 3.21 3.09
0.02 0.02 0.04 0.07 0.11 0.15 0.17 0.19 0.20 0.21 0.25 0.26 0.29 0.30 0.31 0.31 0.31 0.31 0.32 0.33 0.41 0.49 0.30 0.06 0.06 0.07 0.10 0.12 0.17 0.18 0.19 0.21 0.23 0.28 0.33 0.36 0.41 0.51 0.66 0.97 1.56 2.48 3.08
0.03 0.04 0.07 0.10 0.15 0.21 0.25 0.29 0.29 0.31 0.31 0.29 0.30 0.34 0.36 0.35 0.36 0.33 0.35 0.36 0.35 0.40 0.40 0.10 0.04 0.07 0.13 0.16 0.18 0.18 0.19 0.18 0.16 0.20 0.27 0.34 0.40 0.48 0.60 0.78 1.06 1.65 2.52
0.06 0.08 0.12 0.17 0.21 0.25 0.29 0.37 0.43 0.45 0.48 0.47 0.45 0.45 0.45 0.46 0.48 0.46 0.46 0.42 0.37 0.35 0.41 0.27 0.08 0.06 0.13 0.20 0.26 0.26 0.22 0.19 0.16 0.16 0.21 0.29 0.36 0.43 0.55 0.68 0.86 1.15 1.74
0.10 0.15 0.22 0.30 0.35 0.37 0.38 0.40 0.51 0.64 0.71 0.74 0.74 0.73 0.70 0.67 0.68 0.65 0.63 0.56 0.45 0.36 0.36 0.34 0.18 0.10 0.14 0.23 0.34 0.35 0.30 0.23 0.17 0.18 0.21 0.25 0.31 0.37 0.45 0.57 0.71 0.88 1.15
0.21 0.28 0.36 0.46 0.53 0.62 0.74 0.75 0.73 0.69 0.70 0.79 0.84 0.87 0.92 0.95 0.95 0.90 0.88 0.72 0.57 0.49 0.43 0.42 0.32 0.21 0.18 0.24 0.43 0.48 0.43 0.34 0.25 0.20 0.23 0.25 0.30 0.36 0.38 0.41 0.46 0.61 0.87
0.28 0.36 0.40 0.42 0.45 0.67 1.12 1.28 1.00 0.64 0.54 0.56 0.59 0.63 0.74 0.91 1.04 1.11 1.15 1.00 0.86 0.81 0.70 0.62 0.51 0.39 0.31 0.36 0.51 0.57 0.62 0.55 0.46 0.35 0.28 0.23 0.24 0.26 0.27 0.31 0.39 0.50 0.69
0.20 0.31 0.37 0.34 0.34 0.55 1.01 1.16 0.78 0.47 0.40 0.40 0.40 0.41 0.45 0.61 0.73 0.85 1.00 1.06 1.12 1.19 1.12 0.95 0.77 0.62 0.46 0.42 0.51 0.69 0.76 0.83 0.76 0.53 0.45 0.38 0.32 0.30 0.26 0.25 0.30 0.40 0.58
0.14 0.18 0.20 0.18 0.21 0.41 0.79 0.89 0.57 0.30 0.24 0.23 0.24 0.25 0.25 0.33 0.47 0.51 0.61 0.73 0.88 1.04 1.18 1.18 1.11 0.84 0.60 0.50 0.61 0.78 0.85 0.92 0.84 0.71 0.72 0.70 0.56 0.44 0.36 0.35 0.39 0.41 0.50
0.12 0.13 0.12 0.08 0.09 0.22 0.59 0.77 0.50 0.23 0.16 0.16 0.18 0.17 0.15 0.20 0.35 0.46 0.56 0.56 0.57 0.73 0.98 1.16 1.26 1.08 0.83 0.73 0.86 1.04 1.15 1.14 0.99 0.92 0.96 0.99 0.76 0.61 0.55 0.50 0.48 0.44 0.45
0.09 0.12 0.10 0.06 0.04 0.09 0.42 0.76 0.57 0.23 0.15 0.14 0.15 0.16 0.15 0.14 0.31 0.46 0.49 0.43 0.39 0.49 0.63 0.89 1.08 1.12 1.06 1.04 1.11 1.33 1.43 1.47 1.36 1.14 1.11 1.16 1.01 0.79 0.73 0.73 0.66 0.54 0.46
0.05 0.07 0.07 0.05 0.03 0.05 0.24 0.67 0.72 0.31 0.19 0.14 0.13 0.13 0.20 0.26 0.35 0.41 0.40 0.41 0.45 0.42 0.41 0.47 0.55 0.64 0.70 0.73 0.92 1.17 1.30 1.42 1.44 1.46 1.27 1.21 1.24 1.17 1.19 0.97 0.77 0.56 0.46

GEFSMA_prec_meanprecacc_144.txt.gz
Total_Precipitation_Accumulation
0.11 0.11 0.12 0.12 0.12 0.14 0.14 0.16 0.17 0.16 0.16 0.16 0.17 0.18 0.21 0.23 0.21 0.17 0.14 0.12 0.08 0.09 0.15 0.30 0.55 0.81 1.02 1.13 1.14 1.00 0.93 0.80 0.64 0.55 0.52 0.60 0.63 0.62 0.66 0.76 0.73 0.62 0.58
0.04 0.03 0.03 0.03 0.02 0.02 0.02 0.03 0.04 0.05 0.06 0.08 0.09 0.11 0.13 0.16 0.18 0.19 0.19 0.21 0.16 0.13 0.14 0.20 0.34 0.57 0.88 1.11 1.22 1.19 1.06 0.98 0.81 0.64 0.56 0.56 0.62 0.62 0.62 0.68 0.76 0.73 0.62
0.02 0.02 0.02 0.01 0.01 0.00 0.00 0.00 0.01 0.01 0.01 0.02 0.03 0.05 0.07 0.08 0.12 0.15 0.18 0.22 0.23 0.20 0.17 0.20 0.27 0.42 0.71 1.02 1.20 1.34 1.26 1.12 1.01 0.87 0.68 0.57 0.59 0.64 0.63 0.65 0.72 0.79 0.76
0.01 0.01 0.01 0.01 0.01 0.01 0.01 0.01 0.01 0.01 0.01 0.02 0.02 0.03 0.06 0.07 0.06 0.09 0.14 0.16 0.19 0.21 0.20 0.20 0.28 0.42 0.60 0.86 1.13 1.39 1.50 1.34 1.25 1.19 1.00 0.77 0.62 0.64 0.66 0.65 0.71 0.79 0.87
0.01 0.01 0.02 0.01 0.01 0.02 0.02 0.03 0.03 0.02 0.02 0.02 0.02 0.02 0.02 0.04 0.05 0.08 0.11 0.14 0.17 0.18 0.20 0.21 0.25 0.34 0.48 0.70 1.04 1.39 1.73 1.76 1.59 1.47 1.31 1.12 0.89 0.72 0.71 0.69 0.72 0.80 0.89
0.01 0.01 0.02 0.01 0.01 0.01 0.02 0.02 0.02 0.02 0.02 0.02 0.02 0.01 0.00 0.01 0.02 0.05 0.07 0.12 0.16 0.17 0.19 0.24 0.27 0.25 0.27 0.39 0.63 1.01 1.39 1.73 1.81 1.72 1.61 1.43 1.22 0.99 0.85 0.78 0.77 0.84 0.95
0.01 0.01 0.01 0.01 0.01 0.01 0.02 0.02 0.02 0.03 0.02 0.02 0.02 0.01 0.00 0.00 0.01 0.02 0.07 0.12 0.17 0.23 0.29 0.34 0.40 0.38 0.30 0.29 0.32 0.46 0.80 1.30 1.66 1.83 1.83 1.78 1.55 1.30 1.09 0.94 0.89 0.93 1.00
0.01 0.01 0.01 0.01 0.01 0.01 0.01 0.01 0.02 0.05 0.04 0.03 0.07 0.11 0.05 0.01 0.00 0.01 0.04 0.09 0.17 0.27 0.39 0.44 0.49 0.50 0.46 0.36 0.25 0.25 0.37 0.73 1.28 1.75 1.90 1.91 1.96 1.75 1.39 1.16 1.03 1.05 1.11
0.01 0.00 0.01 0.01 0.01 0.01 0.01 0.01 0.02 0.04 0.06 0.04 0.07 0.24 0.32 0.16 0.05 0.00 0.01 0.04 0.08 0.12 0.20 0.29 0.36 0.41 0.47 0.48 0.39 0.30 0.28 0.43 0.79 1.40 1.90 2.01 2.05 2.14 1.91 1.49 1.23 1.14 1.18
0.01 0.01 0.01 0.01 0.01 0.01 0.02 0.02 0.03 0.05 0.11 0.12 0.08 0.12 0.22 0.27 0.29 0.13 0.01 0.02 0.02 0.04 0.06 0.10 0.16 0.23 0.34 0.44 0.48 0.43 0.36 0.37 0.57 0.94 1.58 2.11 2.17 2.26 2.36 2.02 1.59 1.34 1.26
0.01 0.01 0.01 0.01 0.01 0.01 0.02 0.03 0.04 0.06 0.12 0.17 0.17 0.15 0.14 0.13 0.19 0.28 0.12 0.02 0.03 0.03 0.03 0.05 0.07 0.10 0.16 0.27 0.36 0.43 0.45 0.40 0.50 0.71 1.07 1.71 2.30 2.47 2.57 2.45 2.00 1.58 1.35
0.01 0.01 0.01 0.01 0.01 0.02 0.03 0.04 0.07 0.09 0.11 0.15 0.18 0.20 0.24 0.26 0.20 0.26 0.22 0.07 0.03 0.03 0.04 0.05 0.06 0.07 0.10 0.16 0.23 0.35 0.43 0.44 0.45 0.56 0.69 1.07 1.81 2.47 2.69 2.59 2.29 1.91 1.55
0.01 0.01 0.01 0.02 0.02 0.03 0.05 0.07 0.10 0.11 0.13 0.17 0.20 0.21 0.22 0.22 0.21 0.26 0.30 0.17 0.07 0.03 0.03 0.05 0.06 0.09 0.11 0.14 0.18 0.25 0.32 0.39 0.45 0.50 0.51 0.58 0.96 1.78 2.57 2.81 2.56 2.20 1.89
0.02 0.01 0.01 0.02 0.03 0.05 0.08 0.11 0.13 0.14 0.16 0.19 0.20 0.21 0.23 0.19 0.22 0.26 0.33 0.37 0.28 0.09 0.03 0.04 0.05 0.08 0.11 0.13 0.15 0.19 0.20 0.27 0.35 0.42 0.44 0.47 0.54 0.90 1.68 2.61 3.14 2.82 2.32
0.02 0.01 0.02 0.04 0.05 0.08 0.11 0.13 0.16 0.18 0.21 0.23 0.24 0.24 0.27 0.25 0.25 0.26 0.29 0.39 0.54 0.38 0.10 0.03 0.05 0.06 0.09 0.13 0.17 0.18 0.17 0.20 0.27 0.35 0.38 0.41 0.47 0.57 0.89 1.57 2.53 3.21 3.09
0.02 0.02 0.04 0.07 0.11 0.15 0.17 0.19 0.21 0.21 0.25 0.27 0.29 0.30 0.31 0.32 0.31 0.31 0.32 0.33 0.41 0.49 0.30 0.06 0.06 0.07 0.10 0.12 0.17 0.18 0.19 0.21 0.23 0.28 0.33 0.36 0.41 0.51 0.67 0.97 1.57 2.49 3.09
0.03 0.04 0.07 0.10 0.15 0.21 0.25 0.29 0.30 0.31 0.32 0.30 0.31 0.35 0.36 0.36 0.36 0.34 0.35 0.36 0.35 0.41 0.41 0.11 0.04 0.07 0.13 0.16 0.18 0.18 0.19 0.18 0.16 0.20 0.27 0.34 0.40 0.48 0.60 0.79 1.06 1.66 2.53
0.06 0.08 0.12 0.17 0.21 0.25 0.29 0.37 0.43 0.45 0.48 0.47 0.45 0.45 0.46 0.47 0.49 0.47 0.47 0.43 0.38 0.36 0.42 0.27 0.08 0.07 0.14 0.21 0.27 0.26 0.22 0.19 0.16 0.16 0.21 0.29 0.36 0.43 0.55 0.69 0.87 1.16 1.75
0.10 0.15 0.22 0.30 0.35 0.37 0.39 0.40 0.51 0.64 0.72 0.74 0.74 0.73 0.70 0.67 0.68 0.66 0.64 0.56 0.46 0.37 0.37 0.35 0.19 0.10 0.14 0.23 0.34 0.35 0.30 0.23 0.17 0.18 0.21 0.25 0.31 0.37 0.45 0.57 0.71 0.88 1.15
0.21 0.28 0.36 0.46 0.53 0.62 0.74 0.75 0.74 0.69 0.71 0.79 0.84 0.87 0.93 0.96 0.96 0.92 0.89 0.74 0.59 0.50 0.44 0.43 0.33 0.21 0.18 0.25 0.43 0.48 0.43 0.34 0.25 0.20 0.23 0.25 0.30 0.36 0.39 0.41 0.47 0.61 0.87
0.28 0.36 0.40 0.42 0.45 0.67 1.12 1.29 1.01 0.65 0.55 0.56 0.60 0.63 0.75 0.92 1.05 1.13 1.17 1.02 0.88 0.82 0.71 0.64 0.52 0.41 0.32 0.37 0.51 0.58 0.63 0.56 0.46 0.35 0.28 0.23 0.24 0.26 0.27 0.31 0.40 0.51 0.69
0.20 0.31 0.37 0.34 0.34 0.55 1.02 1.16 0.78 0.47 0.41 0.40 0.41 0.41 0.46 0.62 0.75 0.87 1.02 1.08 1.14 1.20 1.13 0.97 0.79 0.64 0.47 0.43 0.52 0.70 0.77 0.84 0.77 0.54 0.46 0.38 0.32 0.30 0.27 0.25 0.31 0.41 0.58
0.14 0.18 0.21 0.19 0.22 0.42 0.80 0.90 0.58 0.30 0.24 0.23 0.24 0.25 0.26 0.35 0.49 0.53 0.63 0.75 0.90 1.06 1.20 1.19 1.12 0.85 0.62 0.52 0.63 0.79 0.86 0.93 0.85 0.71 0.73 0.71 0.56 0.45 0.36 0.35 0.39 0.42 0.51
0.12 0.14 0.12 0.09 0.09 0.22 0.60 0.78 0.51 0.24 0.17 0.16 0.19 0.17 0.16 0.21 0.36 0.47 0.57 0.58 0.59 0.75 1.00 1.18 1.28 1.10 0.84 0.74 0.87 1.05 1.15 1.14 0.99 0.93 0.96 1.00 0.76 0.61 0.55 0.50 0.48 0.44 0.45
0.10 0.12 0.10 0.06 0.05 0.10 0.43 0.76 0.58 0.24 0.16 0.14 0.15 0.17 0.15 0.15 0.32 0.48 0.50 0.44 0.40 0.50 0.65 0.90 1.10 1.13 1.07 1.05 1.12 1.33 1.44 1.48 1.37 1.14 1.11 1.17 1.01 0.80 0.73 0.73 0.66 0.54 0.46
0.05 0.07 0.07 0.05 0.03 0.05 0.24 0.68 0.73 0.31 0.19 0.15 0.14 0.14 0.22 0.27 0.37 0.43 0.41 0.42 0.46 0.43 0.43 0.49 0.57 0.66 0.71 0.73 0.92 1.17 1.31 1.43 1.44 1.47 1.28 1.21 1.25 1.17 1.20 0.97 0.77 0.56 0.46

GEFSMA_prec_meanprecacc_150.txt.gz
Total_Precipitation_Accumulation
0.11 0.11 0.12 0.12 0.12 0.14 0.14 0.16 0.17 0.16 0.16 0.16 0.17 0.18 0.21 0.23 0.21 0.17 0.14 0.12 0.09 0.09 0.15 0.31 0.55 0.82 1.02 1.13 1.14 1.00 0.93 0.80 0.64 0.55 0.52 0.60 0.63 0.62 0.66 0.76 0.73 0.62 0.59
0.04 0.03 0.03 0.03 0.02 0.02 0.02 0.03 0.04 0.05 0.06 0.08 0.09 0.11 0.13 0.16 0.18 0.19 0.19 0.21 0.16 0.13 0.14 0.21 0.34 0.57 0.88 1.11 1.22 1.19 1.06 0.98 0.81 0.64 0.56 0.56 0.62 0.62 0.62 0.68 0.77 0.73 0.62
0.02 0.02 0.02 0.01 0.01 0.00 0.00 0.00 0.01 0.01 0.01 0.02 0.03 0.05 0.07 0.08 0.12 0.15 0.18 0.22 0.23 0.20 0.17 0.21 0.27 0.42 0.72 1.02 1.20 1.34 1.26 1.12 1.01 0.87 0.68 0.57 0.59 0.64 0.63 0.65 0.73 0.80 0.77
0.01 0.01 0.01 0.01 0.01 0.01 0.01 0.01 0.01 0.01 0.01 0.02 0.02 0.03 0.06 0.07 0.06 0.09 0.14 0.16 0.19 0.21 0.20 0.20 0.28 0.42 0.60 0.86 1.13 1.39 1.50 1.35 1.25 1.19 1.00 0.78 0.63 0.64 0.66 0.66 0.71 0.80 0.88
0.01 0.01 0.02 0.01 0.01 0.02 0.02 0.03 0.03 0.02 0.02 0.02 0.02 0.02 0.02 0.04 0.05 0.08 0.11 0.14 0.17 0.18 0.20 0.21 0.25 0.34 0.48 0.70 1.04 1.39 1.73 1.76 1.59 1.47 1.31 1.12 0.89 0.72 0.71 0.69 0.72 0.80 0.90
0.01 0.01 0.02 0.01 0.01 0.01 0.02 0.02 0.02 0.02 0.02 0.02 0.02 0.01 0.00 0.01 0.02 0.05 0.07 0.12 0.16 0.17 0.19 0.24 0.27 0.25 0.27 0.39 0.63 1.01 1.39 1.73 1.81 1.72 1.61 1.43 1.22 0.99 0.85 0.79 0.77 0.85 0.96
0.01 0.01 0.01 0.01 0.01 0.01 0.02 0.02 0.02 0.03 0.02 0.02 0.02 0.01 0.00 0.00 0.01 0.02 0.07 0.12 0.17 0.23 0.29 0.34 0.40 0.38 0.30 0.29 0.32 0.46 0.80 1.30 1.66 1.83 1.83 1.78 1.56 1.30 1.09 0.94 0.89 0.93 1.00
0.01 0.01 0.01 0.01 0.01 0.01 0.01 0.01 0.02 0.05 0.04 0.03 0.07 0.11 0.05 0.01 0.00 0.01 0.04 0.09 0.17 0.27 0.39 0.44 0.49 0.50 0.46 0.36 0.25 0.25 0.37 0.73 1.28 1.75 1.90 1.92 1.96 1.75 1.40 1.16 1.04 1.05 1.12
0.01 0.00 0.01 0.01 0.01 0.01 0.01 0.01 0.02 0.04 0.06 0.04 0.07 0.24 0.32 0.16 0.05 0.00 0.01 0.04 0.08 0.12 0.20 0.29 0.36 0.41 0.47 0.48 0.39 0.30 0.28 0.43 0.79 1.40 1.91 2.02 2.05 2.14 1.92 1.50 1.24 1.15 1.19
0.01 0.01 0.01 0.01 0.01 0.01 0.02 0.02 0.03 0.05 0.11 0.12 0.08 0.12 0.22 0.27 0.29 0.13 0.01 0.02 0.02 0.04 0.06 0.10 0.16 0.23 0.34 0.44 0.48 0.43 0.36 0.37 0.57 0.94 1.58 2.11 2.18 2.27 2.37 2.04 1.60 1.35 1.27
0.01 0.01 0.01 0.01 0.01 0.01 0.02 0.03 0.04 0.06 0.12 0.17 0.17 0.15 0.14 0.13 0.19 0.28 0.12 0.02 0.03 0.03 0.03 0.05 0.07 0.10 0.16 0.27 0.36 0.43 0.45 0.40 0.50 0.71 1.07 1.72 2.31 2.48 2.58 2.46 2.01 1.60 1.36
0.01 0.01 0.01 0.01 0.01 0.02 0.03 0.05 0.07 0.09 0.11 0.15 0.18 0.20 0.24 0.26 0.20 0.26 0.22 0.07 0.03 0.03 0.04 0.05 0.06 0.07 0.10 0.16 0.23 0.35 0.43 0.44 0.45 0.56 0.69 1.07 1.82 2.48 2.70 2.60 2.30 1.92 1.55
0.01 0.01 0.01 0.02 0.02 0.03 0.05 0.07 0.10 0.12 0.13 0.17 0.20 0.21 0.22 0.22 0.21 0.26 0.30 0.17 0.08 0.03 0.03 0.05 0.06 0.09 0.11 0.14 0.18 0.25 0.32 0.39 0.45 0.50 0.51 0.58 0.96 1.79 2.57 2.81 2.56 2.21 1.90
0.02 0.01 0.01 0.02 0.03 0.05 0.08 0.11 0.13 0.14 0.16 0.19 0.20 0.21 0.23 0.19 0.22 0.27 0.33 0.37 0.28 0.09 0.04 0.04 0.05 0.08 0.11 0.13 0.15 0.19 0.20 0.27 0.36 0.42 0.45 0.47 0.54 0.90 1.68 2.61 3.14 2.83 2.32
0.02 0.01 0.02 0.04 0.05 0.08 0.11 0.14 0.16 0.18 0.21 0.23 0.24 0.24 0.27 0.25 0.25 0.26 0.29 0.39 0.55 0.39 0.10 0.03 0.05 0.06 0.09 0.13 0.17 0.18 0.17 0.20 0.27 0.35 0.38 0.42 0.47 0.57 0.90 1.57 2.53 3.21 3.10
0.02 0.02 0.04 0.07 0.11 0.15 0.18 0.19 0.21 0.21 0.25 0.27 0.29 0.30 0.32 0.32 0.32 0.32 0.33 0.34 0.42 0.50 0.31 0.06 0.06 0.07 0.10 0.12 0.17 0.18 0.19 0.21 0.23 0.28 0.34 0.37 0.41 0.51 0.67 0.98 1.57 2.50 3.10
0.03 0.04 0.07 0.10 0.15 0.21 0.25 0.29 0.30 0.31 0.32 0.30 0.31 0.35 0.37 0.36 0.37 0.34 0.36 0.36 0.36 0.42 0.42 0.11 0.04 0.07 0.13 0.16 0.18 0.19 0.20 0.18 0.17 0.20 0.27 0.35 0.40 0.48 0.61 0.79 1.07 1.66 2.54
0.06 0.08 0.12 0.17 0.21 0.25 0.29 0.37 0.44 0.46 0.49 0.47 0.46 0.45 0.46 0.47 0.49 0.47 0.48 0.44 0.39 0.37 0.43 0.28 0.09 0.07 0.14 0.22 0.28 0.27 0.23 0.19 0.16 0.17 0.22 0.29 0.37 0.44 0.55 0.69 0.87 1.16 1.75
0.10 0.15 0.22 0.30 0.35 0.37 0.39 0.40 0.51 0.65 0.72 0.75 0.74 0.73 0.71 0.68 0.69 0.67 0.66 0.58 0.47 0.38 0.38 0.36 0.20 0.12 0.16 0.25 0.35 0.36 0.31 0.24 0.18 0.19 0.22 0.26 0.32 0.38 0.46 0.57 0.72 0.89 1.15
0.21 0.28 0.36 0.46 0.54 0.62 0.74 0.75 0.74 0.69 0.71 0.80 0.85 0.88 0.93 0.96 0.97 0.93 0.90 0.75 0.60 0.51 0.45 0.45 0.35 0.23 0.20 0.27 0.45 0.49 0.45 0.35 0.26 0.21 0.24 0.25 0.31 0.37 0.39 0.42 0.47 0.61 0.87
0.28 0.36 0.40 0.42 0.45 0.67 1.13 1.29 1.01 0.65 0.55 0.57 0.60 0.64 0.75 0.92 1.06 1.14 1.17 1.03 0.89 0.83 0.73 0.65 0.54 0.43 0.34 0.39 0.53 0.59 0.64 0.57 0.47 0.36 0.29 0.24 0.25 0.26 0.27 0.32 0.40 0.51 0.70
0.21 0.32 0.38 0.35 0.34 0.56 1.02 1.17 0.79 0.47 0.41 0.41 0.41 0.42 0.46 0.63 0.76 0.88 1.03 1.09 1.15 1.22 1.15 0.99 0.81 0.66 0.49 0.45 0.54 0.71 0.79 0.85 0.78 0.54 0.46 0.38 0.33 0.30 0.27 0.25 0.31 0.41 0.58
0.15 0.20 0.22 0.19 0.22 0.42 0.81 0.91 0.58 0.30 0.24 0.24 0.25 0.26 0.27 0.35 0.50 0.54 0.64 0.78 0.92 1.10 1.23 1.21 1.14 0.87 0.63 0.53 0.64 0.81 0.87 0.94 0.85 0.72 0.73 0.71 0.56 0.45 0.37 0.35 0.40 0.42 0.51
0.13 0.15 0.14 0.10 0.10 0.23 0.61 0.79 0.52 0.24 0.17 0.17 0.20 0.18 0.16 0.21 0.37 0.48 0.58 0.60 0.61 0.77 1.02 1.19 1.29 1.11 0.85 0.75 0.89 1.07 1.17 1.16 1.00 0.93 0.97 1.01 0.77 0.62 0.56 0.51 0.49 0.44 0.46
0.10 0.12 0.12 0.08 0.06 0.11 0.44 0.77 0.59 0.25 0.17 0.15 0.17 0.18 0.17 0.16 0.34 0.50 0.51 0.46 0.42 0.52 0.67 0.92 1.12 1.15 1.09 1.07 1.14 1.35 1.45 1.49 1.38 1.16 1.12 1.18 1.02 0.81 0.75 0.74 0.67 0.55 0.46
0.05 0.07 0.08 0.06 0.05 0.06 0.26 0.69 0.74 0.32 0.20 0.16 0.15 0.15 0.24 0.29 0.39 0.44 0.42 0.43 0.48 0.45 0.45 0.51 0.59 0.68 0.73 0.75 0.95 1.19 1.33 1.45 1.47 1.49 1.29 1.23 1.27 1.19 1.21 0.97 0.78 0.56 0.47

GEFSMA_prec_meanprecacc_156.txt.gz
Total_Precipitation_Accumulation
0.11 0.11 0.12 0.12 0.12 0.14 0.14 0.16 0.17 0.16 0.16 0.16 0.17 0.18 0.21 0.23 0.21 0.17 0.14 0.13 0.09 0.09 0.15 0.31 0.56 0.82 1.03 1.13 1.14 1.00 0.93 0.80 0.64 0.55 0.53 0.60 0.63 0.62 0.66 0.76 0.73 0.62 0.59
0.04 0.03 0.03 0.03 0.02 0.02 0.02 0.03 0.04 0.05 0.06 0.08 0.09 0.11 0.13 0.16 0.18 0.19 0.19 0.21 0.16 0.13 0.14 0.21 0.35 0.58 0.88 1.11 1.22 1.19 1.06 0.98 0.81 0.64 0.56 0.56 0.62 0.62 0.63 0.69 0.77 0.73 0.63
0.02 0.02 0.02 0.01 0.01 0.00 0.00 0.00 0.01 0.01 0.01 0.02 0.03 0.05 0.07 0.08 0.12 0.15 0.18 0.22 0.23 0.20 0.17 0.21 0.27 0.43 0.72 1.02 1.21 1.35 1.26 1.12 1.01 0.87 0.68 0.57 0.59 0.64 0.63 0.66 0.73 0.80 0.77
0.01 0.01 0.01 0.01 0.01 0.01 0.01 0.01 0.01 0.01 0.01 0.02 0.02 0.03 0.06 0.07 0.06 0.09 0.14 0.16 0.19 0.21 0.20 0.20 0.28 0.42 0.60 0.86 1.13 1.39 1.50 1.35 1.25 1.19 1.01 0.78 0.63 0.64 0.66 0.66 0.71 0.80 0.88
0.01 0.01 0.02 0.01 0.01 0.02 0.02 0.03 0.03 0.02 0.02 0.02 0.02 0.02 0.02 0.04 0.05 0.08 0.11 0.14 0.17 0.18 0.20 0.21 0.25 0.34 0.48 0.70 1.04 1.39 1.73 1.77 1.59 1.47 1.31 1.12 0.89 0.72 0.71 0.69 0.72 0.81 0.90
0.01 0.01 0.02 0.01 0.01 0.01 0.02 0.02 0.02 0.02 0.02 0.02 0.02 0.01 0.00 0.01 0.02 0.05 0.07 0.12 0.16 0.17 0.19 0.24 0.27 0.25 0.27 0.39 0.63 1.01 1.39 1.73 1.81 1.72 1.62 1.43 1.22 1.00 0.85 0.79 0.77 0.85 0.96
0.01 0.01 0.01 0.01 0.01 0.01 0.02 0.02 0.02 0.03 0.02 0.02 0.02 0.01 0.00 0.00 0.01 0.02 0.07 0.12 0.17 0.23 0.29 0.34 0.40 0.38 0.30 0.29 0.32 0.46 0.80 1.30 1.66 1.83 1.83 1.78 1.56 1.30 1.09 0.94 0.90 0.94 1.01
0.01 0.01 0.01 0.01 0.01 0.01 0.01 0.01 0.02 0.05 0.04 0.03 0.07 0.11 0.05 0.01 0.00 0.01 0.04 0.09 0.17 0.27 0.39 0.44 0.49 0.50 0.46 0.36 0.25 0.25 0.37 0.73 1.28 1.75 1.90 1.92 1.96 1.76 1.41 1.17 1.05 1.06 1.13
0.01 0.00 0.01 0.01 0.01 0.01 0.01 0.01 0.02 0.04 0.06 0.04 0.07 0.24 0.32 0.16 0.05 0.00 0.01 0.04 0.08 0.12 0.20 0.29 0.36 0.41 0.47 0.48 0.39 0.30 0.28 0.43 0.79 1.40 1.91 2.02 2.06 2.15 1.93 1.51 1.25 1.17 1.21
0.01 0.01 0.01 0.01 0.01 0.01 0.02 0.02 0.03 0.05 0.11 0.12 0.08 0.12 0.22 0.27 0.29 0.13 0.01 0.02 0.02 0.04 0.06 0.10 0.16 0.23 0.34 0.44 0.48 0.43 0.36 0.37 0.57 0.94 1.58 2.12 2.18 2.27 2.38 2.04 1.61 1.36 1.28
0.01 0.01 0.01 0.01 0.01 0.01 0.02 0.03 0.04 0.06 0.12 0.17 0.17 0.15 0.14 0.13 0.19 0.28 0.12 0.02 0.03 0.03 0.03 0.05 0.07 0.10 0.16 0.27 0.36 0.43 0.45 0.40 0.50 0.71 1.07 1.72 2.31 2.48 2.59 2.47 2.02 1.60 1.37
0.01 0.01 0.01 0.01 0.01 0.02 0.03 0.05 0.07 0.09 0.11 0.15 0.18 0.20 0.24 0.26 0.20 0.26 0.22 0.07 0.03 0.03 0.04 0.05 0.06 0.07 0.10 0.16 0.23 0.35 0.43 0.44 0.45 0.56 0.69 1.07 1.82 2.48 2.70 2.61 2.30 1.92 1.56
0.02 0.01 0.01 0.02 0.02 0.03 0.05 0.07 0.10 0.12 0.13 0.17 0.20 0.21 0.22 0.22 0.21 0.26 0.30 0.18 0.08 0.03 0.03 0.05 0.06 0.09 0.11 0.14 0.18 0.25 0.32 0.39 0.45 0.50 0.51 0.58 0.96 1.79 2.57 2.81 2.57 2.21 1.90
0.02 0.01 0.01 0.02 0.03 0.05 0.08 0.11 0.14 0.14 0.16 0.19 0.20 0.22 0.23 0.19 0.22 0.27 0.33 0.38 0.29 0.09 0.04 0.04 0.05 0.08 0.11 0.13 0.15 0.19 0.20 0.27 0.36 0.42 0.45 0.47 0.54 0.90 1.69 2.61 3.14 2.83 2.32
0.02 0.01 0.02 0.04 0.05 0.08 0.11 0.14 0.17 0.18 0.22 0.23 0.25 0.25 0.27 0.25 0.25 0.26 0.29 0.40 0.56 0.40 0.11 0.04 0.05 0.07 0.09 0.13 0.17 0.18 0.17 0.20 0.27 0.35 0.39 0.42 0.47 0.58 0.90 1.57 2.54 3.22 3.10
0.02 0.02 0.04 0.07 0.11 0.15 0.18 0.19 0.21 0.21 0.26 0.27 0.29 0.31 0.32 0.32 0.32 0.32 0.34 0.35 0.43 0.52 0.32 0.06 0.06 0.08 0.10 0.13 0.17 0.19 0.19 0.21 0.24 0.29 0.34 0.37 0.42 0.52 0.67 0.98 1.58 2.50 3.10
0.04 0.05 0.07 0.10 0.15 0.21 0.25 0.29 0.30 0.31 0.32 0.30 0.31 0.35 0.37 0.36 0.37 0.35 0.36 0.37 0.36 0.43 0.43 0.12 0.05 0.08 0.14 0.17 0.18 0.19 0.20 0.19 0.17 0.21 0.28 0.35 0.41 0.49 0.61 0.80 1.07 1.67 2.54
0.08 0.09 0.13 0.17 0.21 0.25 0.29 0.38 0.44 0.46 0.49 0.48 0.46 0.46 0.46 0.47 0.49 0.48 0.48 0.44 0.40 0.38 0.44 0.30 0.10 0.08 0.15 0.22 0.28 0.27 0.23 0.20 0.17 0.18 0.23 0.30 0.38 0.44 0.56 0.70 0.88 1.17 1.76
0.13 0.17 0.23 0.31 0.35 0.37 0.39 0.40 0.52 0.65 0.72 0.75 0.74 0.74 0.71 0.68 0.70 0.68 0.66 0.59 0.48 0.39 0.39 0.38 0.21 0.12 0.16 0.25 0.35 0.36 0.32 0.24 0.19 0.20 0.23 0.27 0.33 0.39 0.47 0.58 0.72 0.89 1.16
0.25 0.31 0.38 0.47 0.54 0.62 0.75 0.75 0.74 0.69 0.71 0.80 0.85 0.88 0.94 0.97 0.97 0.93 0.91 0.76 0.61 0.52 0.46 0.46 0.36 0.24 0.21 0.28 0.46 0.51 0.46 0.36 0.27 0.22 0.25 0.27 0.32 0.37 0.39 0.42 0.47 0.62 0.88
0.32 0.40 0.43 0.44 0.46 0.68 1.13 1.29 1.01 0.65 0.55 0.57 0.60 0.64 0.76 0.93 1.07 1.14 1.18 1.04 0.90 0.84 0.74 0.67 0.56 0.44 0.36 0.41 0.55 0.61 0.65 0.58 0.48 0.37 0.30 0.24 0.25 0.26 0.28 0.32 0.40 0.52 0.70
0.25 0.36 0.42 0.38 0.37 0.57 1.03 1.17 0.79 0.48 0.42 0.41 0.42 0.42 0.47 0.63 0.76 0.88 1.04 1.10 1.16 1.23 1.17 1.01 0.84 0.68 0.51 0.47 0.55 0.73 0.80 0.87 0.79 0.55 0.47 0.39 0.33 0.31 0.27 0.26 0.32 0.42 0.59
0.20 0.24 0.26 0.24 0.27 0.45 0.83 0.91 0.59 0.31 0.25 0.24 0.25 0.27 0.27 0.36 0.51 0.54 0.66 0.80 0.95 1.13 1.26 1.24 1.16 0.89 0.65 0.54 0.65 0.82 0.89 0.95 0.86 0.72 0.74 0.72 0.57 0.46 0.38 0.36 0.40 0.42 0.51
0.18 0.20 0.18 0.14 0.15 0.28 0.65 0.81 0.54 0.25 0.18 0.18 0.20 0.18 0.17 0.22 0.38 0.50 0.61 0.63 0.64 0.80 1.05 1.21 1.30 1.12 0.86 0.76 0.90 1.08 1.19 1.17 1.01 0.94 0.98 1.02 0.78 0.62 0.56 0.52 0.49 0.45 0.46
0.14 0.17 0.16 0.12 0.10 0.15 0.50 0.82 0.64 0.28 0.19 0.17 0.18 0.19 0.19 0.18 0.38 0.54 0.54 0.48 0.44 0.54 0.69 0.94 1.13 1.16 1.10 1.08 1.15 1.36 1.46 1.51 1.40 1.17 1.13 1.18 1.03 0.81 0.75 0.74 0.67 0.55 0.47
0.08 0.10 0.11 0.09 0.08 0.09 0.30 0.74 0.81 0.38 0.24 0.18 0.16 0.17 0.26 0.31 0.42 0.47 0.43 0.45 0.49 0.47 0.46 0.53 0.60 0.69 0.74 0.77 0.97 1.20 1.34 1.47 1.48 1.50 1.30 1.24 1.27 1.19 1.21 0.97 0.78 0.56 0.47